Погода Верхняя Гутара

Погода Верхняя Гутара : погода сейчас, прогноз погоды и архив. Всё, что Вы хотите узнать о погоде Верхняя Гутара!

Поиск расширенной информации на нашем сайте:

Другие новости

Новости СМИ2

Главная страница сайта

Новости сайта

03.07.2017

Напоминаем, что на нашем специализированном сайте Метеоцентр.Азия вы можете получить высокодетализированные автоматические прогнозы погоды по пунктам России, СНГ и мира в авиационном формате (включающие направление и скорость ветра, видимость, явления погоды, количество и форму облачности, нижнюю и верхнюю границу облачности).

Рекомендуем: купить упаковку для тортов в Москве

Погода Верхняя Гутара - сегодня

Время (UTC), дата Ветер
(°,м/с) 
Видим.   Явления Облачность Т
(°С)
Тd
(°С)
f(%) Тe
(°С)
Pmin
(гПа)
dP
(гПа)
Po
(мм)
O2
(г/м3)
Тmin Tmax R s Состояние
почвы
09 09.12.17 230 (ЮЗ) 20000 м    10/0 верхняя 
[Ci fib]
-7.3 -10.7 77 -7  1034.3  -0.2  685  284           
12 09.12.17 тихо ()   20000 м    ясно 
-16 -16.6 95 -16  1039.1  0.4  685  294    -2.5       
15 09.12.17 тихо ()   20000 м    ясно 
-20.1 -20.7 95 -20  1041.3  685  299           
18 09.12.17 тихо ()   20000 м    ясно 
-22.4 -23 95 -22  1041.4  -1  684  302           
21 09.12.17 тихо ()   20000 м    ясно 
-23.8 -24.4 95 -24  1041.6  -0.6  684  303           
00 10.12.17 тихо ()   20000 м    ясно 
-23.9 -24.5 95 -24  1040.7  -0.8  683  303  -24.7      17  неравномерный
сухой снег
100% 
03 10.12.17 тихо ()   20000 м    9/0 верхняя 
[Ci fib]
-23.3 -23.9 95 -23  1040.1  -0.2  683  302  -25.1         
06 10.12.17 тихо ()   20000 м    10/0 верхняя 
[Ci fib]
-12.9 -14.9 85 -13  1033.7  -0.8  682  290           
09 10.12.17 тихо ()   20000 м    10/0 средняя, верхняя 
[Ac trans|Ci fib]
-16 -17.3 90 -16  1034.6  -0.5  682  293           
12 10.12.17 тихо ()   20000 м    9/0 верхняя 
[Ci fib]
-22 -23.9 84 -22  1037.8  -0.1  682  300    -11.8       
15 10.12.17 тихо ()   20000 м    5/0 верхняя 
[Ci fib]
-22.6 -23.8 90 -23  1037.4  0.7  681  301           
18 10.12.17 тихо ()   20000 м    ясно 
-24.1 -25.4 89 -24  1037.5  -0.5  681  303           
21 10.12.17 тихо ()   20000 м    10/0 верхняя 
[Ci fib]
-24.6 -25.9 89 -25  1037  -0.7  681  303           
00 11.12.17 тихо ()   20000 м    10/0 верхняя 
[Cs]
-22.5 -23.7 90 -23  1035.4  -0.4  680  300  -25.4      17  неравномерный
сухой снег
100% 
03 11.12.17 тихо ()   20000 м    10/0 верхняя 
[Cs]
-20.9 -21.5 95 -21  1035  0.4  681  298           
06 11.12.17 тихо ()   20000 м    10/0 средняя, верхняя 
[Ac lent|Cs]
-13.1 -14.4 90 -13  1030.6  -0.3  680  289           
09 11.12.17 тихо ()   20000 м    10/0 средняя, верхняя 
[Ac lent|Cs]
-13.9 -15.2 90 -14  1031.3  0.3  681  290           
12 11.12.17 тихо ()   20000 м    10/0 верхняя 
[Cs]
-18.1 -18.7 95 -18  1034.4  0.8  681  295    -12.1       
15 11.12.17 тихо ()   20000 м    10/0 верхняя 
[Cs]
-20 -20.6 95 -20  1035.5  681  298           
18 11.12.17 тихо ()   20000 м    10/0 верхняя 
[Cs]
-23.9 -24.5 95 -24  1037.5  681  302           
21 11.12.17 тихо ()   20000 м    3/0 верхняя 
[Ci fib]
-25.7 -26.3 95 -26  1038  -0.5  681  304           
00 12.12.17 тихо ()   20000 м    10/0 верхняя 
[Cs]
-27.1 -27.6 95 -27  1036.6  -1.9  679  306  -27.2      17  неравномерный
сухой снег
100% 
03 12.12.17 тихо ()   20000 м    10/4 600 м кучево-дожд., средняя 
[Cb cap|As trans]
-23.8 -24.4 95 -24  1033.9  -0.8  679  301           
06 12.12.17 тихо ()   20000 м    10/3 1000 м средняя 
[Sc|As trans]
-16.7 -17.1 97 -17  1029.1  -0.7  678  292           
09 12.12.17 тихо ()   4000 м  слаб. снег  10/0 средняя 
[As op]
-13.8 -15.1 90 -14  1028.1  0.2  678  289           
Время (UTC), дата Ветер
(°,м/с) 
Видим.   Явления Облачность Т
(°С)
Тd
(°С)
f(%) Тe
(°С)
Pmin
(гПа)
dP
(гПа)
Po
(мм)
O2
(г/м3)
Тmin Tmax R s Состояние
почвы

Для получения пояснительной информации подведите курсор к названию столбца.

ПОГОДА Верхняя Гутара - архив

Всё, что Вы хотите узнать о погоде Верхняя Гутара - удобно и подробно!

Выберите нужную дату (начиная с 1 января 2015* года) и нажмите кнопку "Найти".
Будут отображены архивные сводки погоды по пункту Верхняя Гутара, начиная с указанной даты.


Отображать данные в формате CSV (для использования в таблицах Excel)


Внимание! Наш архив погоды предназначен исключительно для личного некоммерческого использования в познавательных целях. Если Вам необходимы официальные справки о состоянии погоды (для производственных, юридических, коммерческих и т.п. целей), обращайтесь в органы Росгидромета.

*Примечание: данная дата относится к архиву по метеостанциям СССР (Россия, СНГ, Балтия).
Архив по метеостанциям Зарубежной Европы и Азии (кроме Китая) хранится 10 дней, по другим регионам земного шара (Китай, Африка, Америка, Австралия, Океания) - 1 день.

Верхняя Гутара - район местоположения метеостанции


Название, широта, долгота, высота метеостанции:
Верхняя Гутара 54.2°ш. 97°д. 984 м над ур. моря [Российская Федерация]

Дополнительная информация

В oтличие oт бoльшинства пoгoдных сайтoв мы публикуем пoдрoбную метеoинфoрмацию в детальнoм прoфессиoнальнoм фoрмате.

Характеристики температуры и влажнoсти вoздуха измеряются на высoте 2 м в тени вдали oт зданий и деревьев.
Скoрoсть ветра измеряется на высoте 10 м (на урoвне рoста челoвека скoрoсть ветра ниже в 1.5-2 раза). Если метеoстанция нахoдится в гoрoде или в лесу, тo скoрoсть ветра занижена на 2-4 м/с пo сравнению с oткрытым местoм. Скoрoсть ветра над акватoриями крупных рек и oзёр, а также на вершинах хoлмoв на 2-5 м/с выше, чем в oбычных услoвиях.
Атмoсфернoе давление в разных тoчках местнoсти мoжет значительнo oтличаться oт давления на метеoстанции, в зависимoсти oт услoвий рельефа (при пoдъёме на 10 м давление пoнижается примернo на 1 мм рт.ст.).